Flag for Russia Weather past 2 weeks in Kazan, Russia

Now
14 °F

Clear.


Feels Like: 8 °F
Forecast: 6 / 19 °F
Wind: 3 mph from Northeast

Location: Kazan'

Current Time: Mar 4, 2015 at 11:18:16 PM

Latest Report: Mar 4, 2015 at 11:00 PM


Visibility: 10 mi

Pressure: 30.09 "Hg

Humidity: 85%

Dew point: 10 °F

Location of KazanLocation

Historic Weather in Kazan — Graph

°F

Kazan temperature yesterday

Maximum temperature yesterday: 28 °F (at 2:00 PM)
Minimum temperature yesterday: 9 °F (at 11:30 PM)
Average temperature yesterday: 18 °F

Past Weeks' High & Low Weather Summary

 TemperatureHumidityPressure
High37 °F (Feb 22, 8:30 PM)100% (Feb 20, 8:30 PM)30.66 "Hg (Feb 20, 8:30 PM)
Low-11 °F (Feb 20, 2:30 AM)52% (Feb 22, 11:00 PM)29.77 "Hg (Feb 20, 9:00 PM)
Average20 °F84%30.25 "Hg
* Reported Feb 17 10:00 PM — Mar 4 10:00 PM, Kazan, Weather by CustomWeather, © 2015

Note: Actual official high and low records may vary slightly from our data, if they occured in-between our weather recording intervals... More about our weather records

Advertising

Kazan weather history for previous 24 hours

 ConditionsComfort  
Time TempWeatherWind HumidityBarometerVisibility
10:00 PM
Wed, Mar 4
16 °FClear.3 mph79%30.09 "Hg10 mi
9:30 PM18 °FClear.6 mph79%30.09 "Hg10 mi
9:00 PM16 °FClear.3 mph86%30.09 "Hg10 mi
8:30 PM16 °FClear.3 mph86%30.09 "Hg10 mi
8:00 PM16 °FClear.3 mph86%30.09 "Hg10 mi
7:30 PM19 °FClear.3 mph79%30.09 "Hg10 mi
7:00 PM23 °FClear.6 mph74%30.12 "Hg10 mi
6:30 PM19 °FClear.3 mph79%30.12 "Hg10 mi
6:00 PM21 °FSunny.3 mph74%30.12 "Hg10 mi
5:30 PM23 °FSunny.3 mph74%30.12 "Hg10 mi
5:00 PM25 °FSunny.3 mph69%30.12 "Hg10 mi
4:30 PM27 °FSunny.3 mph69%30.12 "Hg10 mi
4:00 PM27 °FSunny.3 mph69%30.12 "Hg10 mi
3:30 PM28 °FSunny.3 mph69%30.12 "Hg10 mi
3:00 PM28 °FSunny.3 mph64%30.12 "Hg10 mi
2:00 PM28 °FSunny.6 mph64%30.12 "Hg10 mi
1:30 PM27 °FSunny.6 mph69%30.12 "Hg10 mi
1:00 PM27 °FSunny.3 mph64%30.12 "Hg10 mi
12:30 PM23 °FSunny.3 mph74%30.12 "Hg10 mi
12:00 PM23 °FSunny.3 mph68%30.12 "Hg10 mi
11:30 AM19 °FSunny.6 mph79%30.12 "Hg10 mi
11:00 AM19 °FSunny.3 mph73%30.12 "Hg10 mi
10:30 AM16 °FSunny.3 mph79%30.12 "Hg10 mi
10:00 AM14 °FSunny.3 mph79%30.15 "Hg10 mi
9:30 AM16 °FSunny.6 mph79%30.15 "Hg10 mi
9:00 AM12 °FSunny.8 mph85%30.15 "Hg10 mi
8:30 AM7 °FIce fog.3 mph92%30.15 "Hg3 mi
8:00 AM7 °FIce fog.No wind92%30.15 "Hg2 mi
7:30 AM7 °FIce fog.3 mph92%30.15 "Hg3 mi
6:30 AM7 °FClear.6 mph92%30.15 "Hg10 mi
6:00 AM7 °FClear.3 mph92%30.15 "Hg10 mi
5:30 AM9 °FClear.3 mph92%30.15 "Hg10 mi
5:00 AM9 °FClear.3 mph85%30.15 "Hg10 mi
4:30 AM9 °FClear.3 mph92%30.15 "Hg10 mi
4:00 AM12 °FClear.3 mph85%30.15 "Hg10 mi
3:30 AM14 °FClear.6 mph85%30.15 "Hg10 mi
3:00 AM14 °FClear.3 mph85%30.15 "Hg10 mi
2:30 AM10 °FClear.6 mph85%30.18 "Hg10 mi
2:00 AM10 °FClear.6 mph92%30.18 "Hg10 mi
1:30 AM9 °FClear.6 mph92%30.18 "Hg10 mi
1:00 AM10 °FClear.3 mph92%30.18 "Hg10 mi
12:30 AM12 °FIce fog.3 mph92%30.18 "Hg3 mi
11:30 PM
Tue, Mar 3
9 °FIce fog.3 mph92%30.18 "Hg3 mi
11:00 PM10 °FClear.3 mph100%30.18 "Hg10 mi
Weather by CustomWeather, © 2015

See weather overviewHow to use our weather pages